Regional Weather Roundup
Issued by NWS Burlington, VT

Current Version | Previous Version | Text Only | Print | Product List | Glossary On
Versions: 1 2 3 4 5 6 7 8 9 10 11 12 13 14 15 16 17 18 19 20 21 22 23 24 25 26 27 28 29 30 31 32 33 34 35 36 37 38 39 40 41 42 43 44 45 46 47 48 49 50
000
ASUS41 KBTV 182030
RWRBTV
VERMONT REGIONAL WEATHER ROUNDUP
NATIONAL WEATHER SERVICE BURLINGTON VT
300 PM EST THU JAN 18 2018

NOTE: "FAIR" INDICATES FEW OR NO CLOUDS BELOW 12,000 FEET WITH NO
SIGNIFICANT WEATHER AND/OR OBSTRUCTIONS TO VISIBILITY.

* THESE REPORTS ARE NOT UNDER NWS QUALITY CONTROL AND/OR DO NOT
  REPORT WEATHER SUCH AS PRECIPITATION AND FOG.

VTZ001>019-182100-
_____VERMONT_____


CITY           SKY/WX    TMP DP  RH WIND       PRES   REMARKS
BURLINGTON     CLOUDY    24  15  68 S6        29.92S WCI  17
MONTPELIER     CLOUDY    22  17  81 NW7       29.88F WCI  13
MORRISVILLE      N/A     26  15  63 VRB5      29.87F WCI  20
ST. JOHNSBURY*   N/A     24  18  77 MISG      29.86S
LYNDONVILLE*   LGT SNOW  22  18  83 CALM      29.85F
MIDDLEBURY*    CLOUDY    23  15  71 S3        29.91F
RUTLAND*       FLURRIES  23  18  80 NW5       29.90S WCI  17
SPRINGFIELD    CLOUDY    26  15  63 VRB5G16   29.89S WCI  20
HIGHGATE*      CLOUDY    25  17  72 CALM      29.91F
NEWPORT*       LGT SNOW  23  19  83 SW3       29.86S
BENNINGTON     CLOUDY    21  11  65 NW7       29.90F WCI  12
SUTTON*          N/A     21 N/A N/A MISG        N/A
ISLAND POND*     N/A     23 N/A N/A W3          N/A
GALLUP MILLS*    N/A     21 N/A N/A MISG        N/A
UNION VILLAGE*   N/A     27 N/A N/A MISG        N/A
MT. MANSFIELD*   N/A     14 N/A N/A W9G53       N/A  WCI   2

_____LAKE CHAMPLAIN_____


CITY           SKY/WX    TMP DP  RH WIND       PRES   REMARKS
BURTON ISLAND*   N/A     25  19  80 W10G16      N/A  WCI  15
COLCHESTER RF*   N/A     27  21  80 S18         N/A  WCI  13

$$

NYZ007-026>031-035-052-083-087-182100-
_____NORTHERN NEW YORK_____


CITY           SKY/WX    TMP DP  RH WIND       PRES   REMARKS
PLATTSBURGH    CLOUDY    28  17  63 VRB5      29.92S WCI  23
SARANAC LAKE   CLOUDY    20  16  84 W8        29.83S FOG     WCI  10
MASSENA        CLOUDY    26  21  81 SW12      29.94S WCI  16
OGDENSBURG*    CLOUDY    27  20  77 SW7       29.94S WCI  19
POTSDAM*       CLOUDY    25  19  80 SW9G18    29.93R WCI  15
STARK FALLS*     N/A     21 N/A N/A SW13        N/A  WCI   9
WATERTOWN      SNOW      26  24  92 SW15      29.97S VSB 1/2 WCI  14
FT DRUM        FLURRIES  25  21  86 W8        29.94R WCI  16
ALBANY         PTSUNNY   24  11  57 W15G23    29.97F WCI  11
GLENS FALLS    CLOUDY    22  15  75 S5        29.94F WCI  16

$$
NHZ002-005-011-182100-
_____NEW HAMPSHIRE_____


CITY           SKY/WX    TMP DP  RH WIND       PRES   REMARKS
LEBANON        PTSUNNY   27  17  66 NW7       29.87F WCI  19
KEENE          FLURRIES  30  19  63 N13       29.87S WCI  20
MT WASHINGTON  PTSUNNY   25 -15  17 NW40        N/A  WCI   6
PLYMOUTH       CLOUDY    28  16  61 NW8G16    29.85S WCI  19
WHITEFIELD     CLOUDY    24  17  74 CALM      29.85S

$$

_____REGIONAL QUEBEC LOCATIONS_____


CITY           SKY/WX    TMP DP  RH WIND       PRES   REMARKS
MONTREAL       FLURRIES  27  19  74 SW16G24   29.90S WCI  14
QUEBEC CITY    LGT SNOW  25  19  80 SW12      29.83S WCI  14
SHERBROOKE     FLURRIES  23  18  80 SW7       29.84S WCI  15

_____REGIONAL ONTARIO LOCATIONS_____


CITY           SKY/WX    TMP DP  RH WIND       PRES   REMARKS
OTTAWA         FLURRIES  23  18  80 SW10      29.91R WCI  12

______KEY______
VSB  - VISIBILITY IN MILES
WCI  - WIND CHILL INDEX
HX   - HEAT INDEX
$$
NNNN




USA.gov is the U.S. government's official web portal to all federal, state and local government web resources and services.